THOR ABLESTAR DEB, 1425

Orbit data source: Space-Track

THOR ABLESTAR DEB, 1425 is space debris in LEO originally from a launch on Thu, 24 Jun 1965 UTC launched from the Air Force Western Test Range (AFWTR). Debris objects in space refer to the collection of defunct objects orbiting the Earth. Examples of debris include non-operational satellites, rocket bodies, and fragments generated from explosions, collisions, or faulty payload assembly.

Loading next visibility...
Identifier
1425, 1965-048C
Orbit
LEO
Country
Flag of USUS
Related business
Manufacturer
APL
Mission
Spacecraft
Bus & Motor
Unknown
Mass
Unknown
Launch date (UTC)
1965-06-24 (60 years ago)
Launch vehicle
Unknown
Launch site
Air Force Western Test Range (AFWTR)
Object type
Payload
Rocket body
Debris
Shape & HBR
Unknown
Radar Cross Section
0.610 m², Medium (>0.1 m² and < 1m²)

Expand to show TLE details & history
Last TLE update: 15 hours ago

TLE from 15 hours ago
0 THOR ABLESTAR DEB
1 01425U 65048C   25257.60426084  .00000028  00000-0  29682-4 0  9997
2 01425  89.8779 288.3218 0072037 301.0793 178.7402 13.48924362963274
Epoch: 2025-09-14T14:30Z
TLE epoch observation values (Epoch: 2025-09-14T14:30:08.136Z)
Latitude
60.25098°
Longitude
-103.24554°
Altitude
1,140.254 km
Speed
7.262 km/s
True Right ascension
07h 12m 26s
True Declination
60° 06' 37"
Sunlit
Object was in daylight at epoch
Visualization orbit readout
Latitude
Unknown
Longitude
Unknown
Altitude
Unknown
Speed
Unknown
Apparent Right ascension
Unknown
Apparent Declination
Unknown
Sunlit
N/A
Visualization observer readout
Local Sidereal Time
22:04:28
Azimuth
Unknown
Elevation
Unknown
Doppler factor
Unknown
Orbital elements
Apogee altitude
1,126.948 km
Perigee altitude
1,019.592 km
Semi-major axis
7,451.407 km
Eccentricity
0.0072
Inclination
89.8779°
RAAN
288.3218°
Arg. of periapsis
301.0793°
True anomaly
178.75819°
Mean anomaly
178.7402°
Eccentric anomaly
178.74921°
Mean motion
3.37432 °/min
Orbital period
106.69 mins
BSTAR
0.000029682
Loading maneuver chart data...
Computing Atmospheric mass density...

Documentation

Showing up to 5 results
|